Meteo

Meteo


Dettagli e Storico

Webcam

Webcam in aeroporto – Aggiornata ogni minuto
Osservatorio Meteorologico Cocomaro di Cona – Ferrara

NOAA IMAGE

NOAA

Windy

METAR

Aviation Digital Data Service (ADDS)

Output produced by METARs form (1445 UTC 27 January 2022)
found at http://www.aviationweather.gov/metar/data/
 
METAR text: LIPF 271355Z 00000KT 3500 BR OVC012 05/03 Q1026 RMK OVC VIS MIN 3500
Conditions at: LIPF (FERRARA (AUT) , IT) observed 1355 UTC 27 January 2022
Temperature: 5.0°C (41°F)
Dewpoint: 3.0°C (37°F) [RH = 87%]
Pressure (altimeter): 30.30 inches Hg (1026.0 mb)
Winds: calm
Visibility: 2.17 miles (3.49 km)
Ceiling: 1200 feet AGL
Clouds: overcast cloud deck at 1200 feet AGL
Weather: BR  (mist)

METAR text: LIPE 271420Z VRB02KT 3000 BR OVC006 04/03 Q1026
Conditions at: LIPE (BOLOGNA/BORGO (A, IT) observed 1420 UTC 27 January 2022
Temperature: 4.0°C (39°F)
Dewpoint: 3.0°C (37°F) [RH = 93%]
Pressure (altimeter): 30.30 inches Hg (1026.0 mb)
Winds: variable direction winds at 2 MPH (2 knots; 1.0 m/s)
Visibility: 1.86 miles (2.99 km)
Ceiling: 600 feet AGL
Clouds: overcast cloud deck at 600 feet AGL
Weather: BR  (mist)

Forecast for: LIPE (BOLOGNA/BORGO (A, IT)
Text: TAF LIPE 271100Z 2712/2812 VRB05KT 1500 BR BKN002
Forecast period: 1200 to 1600 UTC 27 January 2022
Forecast type: FROM: standard forecast or significant change
Winds: variable direction winds at 6 MPH (5 knots; 2.6 m/s)
Visibility: 0.93 miles (1.50 km)
Ceiling: 200 feet AGL
Clouds: broken clouds at 200 feet AGL
Weather: BR  (mist)
Text: BECMG 2716/2718 0500 FZFG
Forecast period: 1600 UTC 27 January 2022 to 1000 UTC 28 January 2022
Forecast type: BECOMING: Conditions expected to become as follows by 1800 UTC 27 January 2022
Winds: variable direction winds at 6 MPH (5 knots; 2.6 m/s)
Visibility: 0.31 miles (0.50 km)
Ceiling: 200 feet AGL
Clouds: broken clouds at 200 feet AGL
Weather: FZFG  (freezing fog)
Text: BECMG 2810/2812 2000 BR SCT012
Forecast period: 1000 to 1200 UTC 28 January 2022
Forecast type: BECOMING: Conditions expected to become as follows by 1200 UTC 28 January 2022
Winds: variable direction winds at 6 MPH (5 knots; 2.6 m/s)
Visibility: 1.24 miles (2.00 km)
Ceiling: at least 12,000 feet AGL
Clouds: scattered clouds at 1200 feet AGL
Weather: BR  (mist)

METAR text: LIPX 271420Z 14004KT 100V170 2000 BR BKN010 04/01 Q1025
Conditions at: LIPX (VILLAFRANCA(CV/M, IT) observed 1420 UTC 27 January 2022
Temperature: 4.0°C (39°F)
Dewpoint: 1.0°C (34°F) [RH = 81%]
Pressure (altimeter): 30.27 inches Hg (1025.0 mb)
Winds: from the SE (140 degrees) at 5 MPH (4 knots; 2.1 m/s)
Visibility: 1.24 miles (2.00 km)
Ceiling: 1000 feet AGL
Clouds: broken clouds at 1000 feet AGL
Weather: BR  (mist)

Forecast for: LIPX (VILLAFRANCA(CV/M, IT)
Text: TAF LIPX 271100Z 2712/2812 VRB05KT 2000 BR BKN006
Forecast period: 1200 to 2000 UTC 27 January 2022
Forecast type: FROM: standard forecast or significant change
Winds: variable direction winds at 6 MPH (5 knots; 2.6 m/s)
Visibility: 1.24 miles (2.00 km)
Ceiling: 600 feet AGL
Clouds: broken clouds at 600 feet AGL
Weather: BR  (mist)
Text: BECMG 2720/2722 0500 FG BKN003
Forecast period: 2000 UTC 27 January 2022 to 1200 UTC 28 January 2022
Forecast type: BECOMING: Conditions expected to become as follows by 2200 UTC 27 January 2022
Winds: variable direction winds at 6 MPH (5 knots; 2.6 m/s)
Visibility: 0.31 miles (0.50 km)
Ceiling: 300 feet AGL
Clouds: broken clouds at 300 feet AGL
Weather: FG  (fog)

METAR text: LIPZ 271420Z 02003KT 330V060 4000 BR BKN015 05/02 Q1025 NOSIG
Conditions at: LIPZ (VENEZIA/TESSERA , IT) observed 1420 UTC 27 January 2022
Temperature: 5.0°C (41°F)
Dewpoint: 2.0°C (36°F) [RH = 81%]
Pressure (altimeter): 30.27 inches Hg (1025.0 mb)
Winds: from the NNE (20 degrees) at 3 MPH (3 knots; 1.5 m/s)
Visibility: 2.49 miles (4.01 km)
Ceiling: 1500 feet AGL
Clouds: broken clouds at 1500 feet AGL
Weather: BR  (mist)

Forecast for: LIPZ (VENEZIA/TESSERA , IT)
Text: TAF LIPZ 271100Z 2712/2818 VRB05KT 3000 BR BKN015
Forecast period: 1200 to 2000 UTC 27 January 2022
Forecast type: FROM: standard forecast or significant change
Winds: variable direction winds at 6 MPH (5 knots; 2.6 m/s)
Visibility: 1.86 miles (2.99 km)
Ceiling: 1500 feet AGL
Clouds: broken clouds at 1500 feet AGL
Weather: BR  (mist)
Text: BECMG 2720/2722 1200
Forecast period: 2000 UTC 27 January 2022 to 0800 UTC 28 January 2022
Forecast type: BECOMING: Conditions expected to become as follows by 2200 UTC 27 January 2022
Winds: variable direction winds at 6 MPH (5 knots; 2.6 m/s)
Visibility: 0.75 miles (1.21 km)
Ceiling: 1500 feet AGL
Clouds: broken clouds at 1500 feet AGL
Weather: BR  (mist)
Text: BECMG 2808/2810 6000
Forecast period: 0800 to 1800 UTC 28 January 2022
Forecast type: BECOMING: Conditions expected to become as follows by 1000 UTC 28 January 2022
Winds: variable direction winds at 6 MPH (5 knots; 2.6 m/s)
Visibility: 4 miles (6 km)
Ceiling: 1500 feet AGL
Clouds: broken clouds at 1500 feet AGL
Weather: BR  (mist)